Location: Marseilles
(40.7010°N, 83.3930°W)
Time: 15:30:55
(UTC-05:00)

Cosmos 1459 Rocket - Visible Passes

Search period start: 09 February 2016 00:00
Search period end: 19 February 2016 00:00
Orbit: 938 x 1000 km, 83.0° (Epoch: 08 February)

Date Brightness Start Highest point End Pass type
(mag) Time Alt. Az. Time Alt. Az. Time Alt. Az.
09 Feb 6.3 06:07:31 10° NNE 06:12:26 24° ENE 06:17:15 10° ESE visible
09 Feb 4.1 19:34:41 10° SSE 19:40:49 52° E 19:46:58 10° NNE visible
09 Feb 6.0 21:21:19 10° SW 21:26:22 24° WNW 21:31:26 10° NNW visible
10 Feb 5.4 06:30:19 10° N 06:36:10 41° ENE 06:41:53 10° SE visible
10 Feb 4.0 19:57:47 10° S 20:04:11 90° ENE 20:10:34 10° N visible
10 Feb 6.7 21:47:08 10° W 21:50:17 14° WNW 21:53:27 10° NW visible
11 Feb 4.3 06:53:31 10° N 06:59:44 72° E 07:05:49 10° SSE visible
11 Feb 5.0 18:38:05 10° SE 18:42:54 23° E 18:47:44 10° NE visible
11 Feb 4.7 20:21:29 10° SSW 20:27:41 53° WNW 20:33:53 10° N visible
12 Feb 6.6 05:33:11 10° NNE 05:37:20 18° ENE 05:41:25 10° ESE visible
12 Feb 4.4 19:00:11 10° SSE 19:06:03 40° E 19:11:54 10° NNE visible
12 Feb 5.7 20:45:47 10° SW 20:51:20 31° WNW 20:56:54 10° NNW visible
13 Feb 5.8 05:55:42 10° NNE 06:01:09 31° ENE 06:06:30 10° SE visible
13 Feb 4.0 19:23:01 10° S 19:29:19 70° E 19:35:39 10° NNE visible
13 Feb 6.5 21:10:57 10° WSW 21:15:10 18° WNW 21:19:23 10° NNW visible
14 Feb 4.8 06:18:43 10° N 06:24:48 55° E 06:30:44 10° SSE visible
14 Feb 4.3 19:46:25 10° SSW 19:52:46 69° W 19:59:05 10° N visible
15 Feb 6.8 04:59:08 10° NE 05:02:11 14° ENE 05:05:12 10° E visible
15 Feb 4.0 06:42:04 10° N 06:48:16 86° W 06:54:21 10° S visible
15 Feb 5.3 20:10:25 10° SW 20:16:20 40° WNW 20:22:15 10° N visible
16 Feb 6.2 05:21:09 10° NNE 05:26:05 24° ENE 05:30:56 10° SE visible
16 Feb 4.1 18:48:21 10° SSE 18:54:31 54° E 19:00:39 10° NNE visible
16 Feb 6.2 20:35:08 10° WSW 20:40:05 23° WNW 20:45:02 10° NNW visible
17 Feb 5.2 05:44:00 10° N 05:49:49 42° ENE 05:55:31 10° SSE visible
17 Feb 4.1 19:11:30 10° S 19:17:52 88° W 19:24:14 10° N visible
17 Feb 6.9 21:01:05 10° W 21:04:00 13° WNW 21:06:56 10° NW visible
18 Feb 7.0 04:26:31 10° ENE 04:26:59 10° ENE 04:27:27 10° ENE visible
18 Feb 4.2 06:07:12 10° N 06:13:22 74° E 06:19:25 10° SSE visible
18 Feb 4.9 19:35:13 10° SSW 19:41:22 51° W 19:47:32 10° N visible
